Location: Derby
(52.9213°N, 1.4761°W)
Time: 16:44:05
(UTC+01:00)

Vanguard 1 - Pass Details

Date: 23 May 2025
Orbit: 649 x 3822 km, 34.3° (Epoch: 14 June)

Event Time Altitude Azimuth Distance (km) Brightness Sun altitude
Rises 16:53:49 0° 220° (SW) 7,889 15.3 35.7°
Reaches altitude 10° 17:00:38 10° 211° (SSW) 6,642 15.0 34.7°
Maximum altitude 17:16:04 28° 163° (SSE) 4,283 13.5 32.4°
Drops below altitude 10° 17:26:42 10° 111° (ESE) 4,543 13.1 30.8°
Sets 17:30:14 0° 99° (E) 5,126 13.2 30.2°
